Find Starlink 32499

NORAD ID: 61959 Int'l Des: 2024-210 Owner: SPXS Country: US Constellation: starlink operational
LEOCIRCULAR

リアルタイム位置

3D地球を読み込み中...

Starlink 32499について

説明を読み込み中...

次回通過

Passes for default location (London). Set your location on the main map for personalized predictions.

高度履歴

Loading altitude history...

軌道要素

1 61959U 24210A 26125.66668980 .00065287 00000-0 23629-2 0 9996
2 61959 43.0014 217.6563 0001083 310.3139 224.9674 15.27555436 5772
Epoch: May 5, 2026 • Age: 10 hours

現在のステータス

高度 485.5 km
速度 7.62 km/s
衛星直下点 -16.22°S, 58.51°W
打ち上げ日 Nov 14, 2024
運用期間 1.4 years
タイプ internet

技術仕様

分類 Payload
質量 730.00 kg
乾燥質量 700.00 kg
総質量 730.00 kg
長さ 0.30 m
直径 4.10 m
スパン 29.00 m
形状 Box + pan
製造者 SPXS
バスタイプ Starlink V2M
フェーズステータス In Orbit
所有者/国 SPXS/US

Most Searched